Flag for Germany Weather past 2 weeks in Bergheim, North Rhine-Westphalia, Germany

Now
39 °F

Passing clouds.


Feels Like: 34 °F
Forecast: 47 / 53 °F
Wind: 8 mph from Southwest

Location: Noervenich

Current Time: Dec 21, 2014 at 7:38:20 AM

Latest Report: Dec 21, 2014 at 6:20 AM


Visibility: N/A

Pressure: 30.42 "Hg

Humidity: 93%

Dew point: 37 °F

Location of BergheimLocation

Historic Weather in Bergheim — Graph

°F

Bergheim temperature yesterday

Maximum temperature yesterday: 45 °F (at 12:20 PM)
Minimum temperature yesterday: 39 °F (at 5:20 AM)
Average temperature yesterday: 42 °F

Past Weeks' High & Low Weather Summary

 TemperatureHumidityPressure
High55 °F (Dec 18, 3:20 PM)100% (Dec 6, 9:20 PM)30.42 "Hg (Dec 6, 9:20 PM)
Low32 °F (Dec 14, 4:20 AM)61% (Dec 7, 1:20 PM)29.45 "Hg (Dec 12, 2:04 PM)
Average42 °F85%29.97 "Hg
* Reported Dec 6 6:20 AM — Dec 21 6:20 AM, Bergheim, Weather by CustomWeather, © 2014

Note: Actual official high and low records may vary slightly from our data, if they occured in-between our weather recording intervals... More about our weather records

Advertising

Bergheim weather history for previous 24 hours

 ConditionsComfort  
Time TempWeatherWind HumidityBarometerVisibility
6:20 AM
Dec 21
39 °FPassing clouds.8 mph93%30.42 "HgN/A
5:20 AM41 °FPassing clouds.9 mph87%30.39 "HgN/A
4:20 AM43 °FPartly cloudy.9 mph87%30.39 "HgN/A
3:20 AM43 °FPassing clouds.8 mph87%30.42 "HgN/A
2:20 AM43 °FPassing clouds.9 mph87%30.39 "HgN/A
1:20 AM41 °FPassing clouds.7 mph87%30.36 "HgN/A
12:20 AM43 °FSprinkles. Partly cloudy.8 mph87%30.36 "HgN/A
11:20 PM
Dec 20
43 °FPassing clouds.13 mph87%30.33 "HgN/A
10:20 PM43 °FPassing clouds.14 mph87%30.30 "HgN/A
9:20 PM41 °FPassing clouds.12 mph93%30.30 "HgN/A
8:20 PM43 °FSprinkles. Partly cloudy.10 mph87%30.27 "HgN/A
7:20 PM45 °FRain showers. Partly cloudy.14 mph81%30.21 "HgN/A
6:20 PM45 °FPassing clouds.16 mph81%30.18 "HgN/A
5:20 PM43 °FSnow flurries. Partly cloudy.17 mph87%30.15 "HgN/A
4:20 PM45 °FPartly sunny.18 mph76%30.12 "HgN/A
3:20 PM45 °FPartly sunny.18 mph76%30.12 "HgN/A
2:20 PM43 °FLight rain. Partly sunny.18 mph87%30.12 "HgN/A
1:20 PM45 °FLight rain. Partly sunny.21 mph71%30.12 "HgN/A
12:20 PM45 °FPartly sunny.18 mph71%30.12 "HgN/A
11:20 AM43 °FScattered clouds.17 mph81%30.15 "HgN/A
10:20 AM43 °FBroken clouds.15 mph81%30.15 "HgN/A
9:20 AM41 °FPartly sunny.12 mph81%30.15 "HgN/A
8:20 AM41 °FPassing clouds.14 mph81%30.15 "HgN/A
7:20 AM41 °FPassing clouds.10 mph81%30.18 "HgN/A
Weather by CustomWeather, © 2014

See weather overviewHow to use our weather pages